#Datum;Uhrzeit;WR;Pac;DaySum;Status;WR;Pac;DaySum;Status;Pdc1;Udc;Temp;WR;Pac;DaySum;Status;Pdc1;Udc;Temp;WR;Pac;DaySum;Status;Pdc1;Udc;Temp;WR;Pac;DaySum;Status;Pdc1;Pdc2;Udc1;Udc2;Temp;WR;Pac;DaySum;Status;Pdc1;Pdc2;Udc1;Udc2;Temp;WR;Pac;DaySum;Status;Pdc1;Udc;Temp;WR;Pac;DaySum;Status;Pdc1;Udc;Temp;WR;Pac;DaySum;Status;Pdc1;Udc;Temp
14.10.19;23:55:00;1;262;8847;0;2;0;22263;0;0;0;0;3;0;14385;0;0;0;0;4;0;21173;0;0;0;0;5;0;53641;0;0;0;0;0;0;6;0;40626;0;0;0;0;0;0;7;0;34568;0;0;0;0;8;0;33820;0;0;0;0;9;0;18268;0;0;0;0
14.10.19;23:50:00;1;206;8826;0;2;0;22263;0;0;0;0;3;0;14385;0;0;0;0;4;0;21173;0;0;0;0;5;0;53641;0;0;0;0;0;0;6;0;40626;0;0;0;0;0;0;7;0;34568;0;0;0;0;8;0;33820;0;0;0;0;9;0;18268;0;0;0;0
14.10.19;23:45:00;1;207;8808;0;2;0;22263;0;0;0;0;3;0;14385;0;0;0;0;4;0;21173;0;0;0;0;5;0;53641;0;0;0;0;0;0;6;0;40626;0;0;0;0;0;0;7;0;34568;0;0;0;0;8;0;33820;0;0;0;0;9;0;18268;0;0;0;0
14.10.19;23:40:00;1;207;8791;0;2;0;22263;0;0;0;0;3;0;14385;0;0;0;0;4;0;21173;0;0;0;0;5;0;53641;0;0;0;0;0;0;6;0;40626;0;0;0;0;0;0;7;0;34568;0;0;0;0;8;0;33820;0;0;0;0;9;0;18268;0;0;0;0
14.10.19;23:35:00;1;235;8774;0;2;0;22263;0;0;0;0;3;0;14385;0;0;0;0;4;0;21173;0;0;0;0;5;0;53641;0;0;0;0;0;0;6;0;40626;0;0;0;0;0;0;7;0;34568;0;0;0;0;8;0;33820;0;0;0;0;9;0;18268;0;0;0;0
14.10.19;23:30:00;1;252;8754;0;2;0;22263;0;0;0;0;3;0;14385;0;0;0;0;4;0;21173;0;0;0;0;5;0;53641;0;0;0;0;0;0;6;0;40626;0;0;0;0;0;0;7;0;34568;0;0;0;0;8;0;33820;0;0;0;0;9;0;18268;0;0;0;0
14.10.19;23:25:00;1;252;8733;0;2;0;22263;0;0;0;0;3;0;14385;0;0;0;0;4;0;21173;0;0;0;0;5;0;53641;0;0;0;0;0;0;6;0;40626;0;0;0;0;0;0;7;0;34568;0;0;0;0;8;0;33820;0;0;0;0;9;0;18268;0;0;0;0
14.10.19;23:20:00;1;330;8711;0;2;0;22263;0;0;0;0;3;0;14385;0;0;0;0;4;0;21173;0;0;0;0;5;0;53641;0;0;0;0;0;0;6;0;40626;0;0;0;0;0;0;7;0;34568;0;0;0;0;8;0;33820;0;0;0;0;9;0;18268;0;0;0;0
14.10.19;23:15:00;1;249;8686;0;2;0;22263;0;0;0;0;3;0;14385;0;0;0;0;4;0;21173;0;0;0;0;5;0;53641;0;0;0;0;0;0;6;0;40626;0;0;0;0;0;0;7;0;34568;0;0;0;0;8;0;33820;0;0;0;0;9;0;18268;0;0;0;0
14.10.19;23:10:00;1;258;8666;0;2;0;22263;0;0;0;0;3;0;14385;0;0;0;0;4;0;21173;0;0;0;0;5;0;53641;0;0;0;0;0;0;6;0;40626;0;0;0;0;0;0;7;0;34568;0;0;0;0;8;0;33820;0;0;0;0;9;0;18268;0;0;0;0
14.10.19;23:05:00;1;259;8644;0;2;0;22263;0;0;0;0;3;0;14385;0;0;0;0;4;0;21173;0;0;0;0;5;0;53641;0;0;0;0;0;0;6;0;40626;0;0;0;0;0;0;7;0;34568;0;0;0;0;8;0;33820;0;0;0;0;9;0;18268;0;0;0;0
14.10.19;23:00:00;1;261;8622;0;2;0;22263;0;0;0;0;3;0;14385;0;0;0;0;4;0;21173;0;0;0;0;5;0;53641;0;0;0;0;0;0;6;0;40626;0;0;0;0;0;0;7;0;34568;0;0;0;0;8;0;33820;0;0;0;0;9;0;18268;0;0;0;0
14.10.19;22:55:00;1;261;8600;0;2;0;22263;0;0;0;0;3;0;14385;0;0;0;0;4;0;21173;0;0;0;0;5;0;53641;2;0;0;0;0;0;6;0;40626;2;0;0;0;0;0;7;0;34568;0;0;0;0;8;0;33820;0;0;0;0;9;0;18268;0;0;0;0
14.10.19;22:50:00;1;279;8579;0;2;0;22263;0;0;0;0;3;0;14385;0;0;0;0;4;0;21173;0;0;0;0;5;0;53641;2;0;0;0;0;0;6;0;40626;2;0;0;0;0;0;7;0;34568;0;0;0;0;8;0;33820;0;0;0;0;9;0;18268;0;0;0;0
14.10.19;22:45:00;1;364;8554;0;2;0;22263;0;0;0;0;3;0;14385;0;0;0;0;4;0;21173;0;0;0;0;5;0;53641;2;0;0;0;0;0;6;0;40626;2;0;0;0;0;0;7;0;34568;0;0;0;0;8;0;33820;0;0;0;0;9;0;18268;0;0;0;0
14.10.19;22:40:00;1;347;8522;0;2;0;22263;0;0;0;0;3;0;14385;0;0;0;0;4;0;21173;0;0;0;0;5;0;53641;2;0;0;0;0;0;6;0;40626;2;0;0;0;0;0;7;0;34568;0;0;0;0;8;0;33820;0;0;0;0;9;0;18268;0;0;0;0
14.10.19;22:35:00;1;324;8494;0;2;0;22263;0;0;0;0;3;0;14385;0;0;0;0;4;0;21173;0;0;0;0;5;0;53641;2;0;0;0;0;0;6;0;40626;2;0;0;0;0;0;7;0;34568;0;0;0;0;8;0;33820;0;0;0;0;9;0;18268;0;0;0;0
14.10.19;22:30:00;1;295;8467;0;2;0;22263;0;0;0;0;3;0;14385;0;0;0;0;4;0;21173;0;0;0;0;5;0;53641;2;0;0;0;0;0;6;0;40626;2;0;0;0;0;0;7;0;34568;0;0;0;0;8;0;33820;0;0;0;0;9;0;18268;0;0;0;0
14.10.19;22:25:00;1;331;8442;0;2;0;22263;0;0;0;0;3;0;14385;0;0;0;0;4;0;21173;0;0;0;0;5;0;53641;2;0;0;0;0;0;6;0;40626;2;0;0;0;0;0;7;0;34568;0;0;0;0;8;0;33820;0;0;0;0;9;0;18268;0;0;0;0
14.10.19;22:20:00;1;323;8415;0;2;0;22263;0;0;0;0;3;0;14385;0;0;0;0;4;0;21173;0;0;0;0;5;0;53641;2;0;0;0;0;0;6;0;40626;2;0;0;0;0;0;7;0;34568;0;0;0;0;8;0;33820;0;0;0;0;9;0;18268;0;0;0;0
14.10.19;22:15:00;1;434;8387;0;2;0;22263;0;0;0;0;3;0;14385;0;0;0;0;4;0;21173;0;0;0;0;5;0;53641;2;0;0;0;0;0;6;0;40626;2;0;0;0;0;0;7;0;34568;0;0;0;0;8;0;33820;0;0;0;0;9;0;18268;0;0;0;0
14.10.19;22:10:00;1;416;8351;0;2;0;22263;0;0;0;0;3;0;14385;0;0;0;0;4;0;21173;0;0;0;0;5;0;53641;2;0;0;0;0;0;6;0;40626;2;0;0;0;0;0;7;0;34568;0;0;0;0;8;0;33820;0;0;0;0;9;0;18268;0;0;0;0
14.10.19;22:05:00;1;392;8316;0;2;0;22263;0;0;0;0;3;0;14385;0;0;0;0;4;0;21173;0;0;0;0;5;0;53641;2;0;0;0;0;0;6;0;40626;2;0;0;0;0;0;7;0;34568;0;0;0;0;8;0;33820;0;0;0;0;9;0;18268;0;0;0;0
14.10.19;22:00:00;1;372;8284;0;2;0;22263;0;0;0;0;3;0;14385;0;0;0;0;4;0;21173;0;0;0;0;5;0;53641;2;0;0;0;0;0;6;0;40626;2;0;0;0;0;0;7;0;34568;0;0;0;0;8;0;33820;0;0;0;0;9;0;18268;0;0;0;0
14.10.19;21:55:00;1;414;8252;0;2;0;22263;0;0;0;0;3;0;14385;0;0;0;0;4;0;21173;0;0;0;0;5;0;53641;2;0;0;0;0;0;6;0;40626;2;0;0;0;0;0;7;0;34568;0;0;0;0;8;0;33820;0;0;0;0;9;0;18268;0;0;0;0
14.10.19;21:50:00;1;414;8218;0;2;0;22263;0;0;0;0;3;0;14385;0;0;0;0;4;0;21173;0;0;0;0;5;0;53641;2;0;0;0;0;0;6;0;40626;2;0;0;0;0;0;7;0;34568;0;0;0;0;8;0;33820;0;0;0;0;9;0;18268;0;0;0;0
14.10.19;21:45:00;1;416;8183;0;2;0;22263;0;0;0;0;3;0;14385;0;0;0;0;4;0;21173;0;0;0;0;5;0;53641;2;0;0;0;0;0;6;0;40626;2;0;0;0;0;0;7;0;34568;0;0;0;0;8;0;33820;0;0;0;0;9;0;18268;0;0;0;0
14.10.19;21:40:00;1;432;8148;0;2;0;22263;0;0;0;0;3;0;14385;0;0;0;0;4;0;21173;0;0;0;0;5;0;53641;2;0;0;0;0;0;6;0;40626;2;0;0;0;0;0;7;0;34568;0;0;0;0;8;0;33820;0;0;0;0;9;0;18268;0;0;0;0
14.10.19;21:35:00;1;412;8117;0;2;0;22263;0;0;0;0;3;0;14385;0;0;0;0;4;0;21173;0;0;0;0;5;0;53641;2;0;0;0;0;0;6;0;40626;2;0;0;0;0;0;7;0;34568;0;0;0;0;8;0;33820;0;0;0;0;9;0;18268;0;0;0;0
14.10.19;21:30:00;1;397;8083;0;2;0;22263;0;0;0;0;3;0;14385;0;0;0;0;4;0;21173;0;0;0;0;5;0;53641;2;0;0;0;0;0;6;0;40626;2;0;0;0;0;0;7;0;34568;0;0;0;0;8;0;33820;0;0;0;0;9;0;18268;0;0;0;0
14.10.19;21:25:00;1;369;8049;0;2;0;22263;0;0;0;0;3;0;14385;0;0;0;0;4;0;21173;0;0;0;0;5;0;53641;2;0;0;0;0;0;6;0;40626;2;0;0;0;0;0;7;0;34568;0;0;0;0;8;0;33820;0;0;0;0;9;0;18268;0;0;0;0
14.10.19;21:20:00;1;370;8019;0;2;0;22263;0;0;0;0;3;0;14385;0;0;0;0;4;0;21173;0;0;0;0;5;0;53641;2;0;0;0;0;0;6;0;40626;2;0;0;0;0;0;7;0;34568;0;0;0;0;8;0;33820;0;0;0;0;9;0;18268;0;0;0;0
14.10.19;21:15:00;1;370;7988;0;2;0;22263;0;0;0;0;3;0;14385;0;0;0;0;4;0;21173;0;0;0;0;5;0;53641;2;0;0;0;0;0;6;0;40626;2;0;0;0;0;0;7;0;34568;0;0;0;0;8;0;33820;0;0;0;0;9;0;18268;0;0;0;0
14.10.19;21:10:00;1;378;7957;0;2;0;22263;0;0;0;0;3;0;14385;0;0;0;0;4;0;21173;0;0;0;0;5;0;53641;2;0;0;0;0;0;6;0;40626;2;0;0;0;0;0;7;0;34568;0;0;0;0;8;0;33820;0;0;0;0;9;0;18268;0;0;0;0
14.10.19;21:05:00;1;414;7925;0;2;0;22263;0;0;0;0;3;0;14385;0;0;0;0;4;0;21173;0;0;0;0;5;0;53641;2;0;0;0;0;0;6;0;40626;2;0;0;0;0;0;7;0;34568;0;0;0;0;8;0;33820;0;0;0;0;9;0;18268;0;0;0;0
14.10.19;21:00:00;1;638;7890;0;2;0;22263;0;0;0;0;3;0;14385;0;0;0;0;4;0;21173;0;0;0;0;5;0;53641;2;0;0;0;0;0;6;0;40626;2;0;0;0;0;0;7;0;34568;0;0;0;0;8;0;33820;0;0;0;0;9;0;18268;0;0;0;0
14.10.19;20:55:00;1;823;7823;0;2;0;22263;0;0;0;0;3;0;14385;0;0;0;0;4;0;21173;0;0;0;0;5;0;53641;2;0;0;0;0;0;6;0;40626;2;0;0;0;0;0;7;0;34568;0;0;0;0;8;0;33820;0;0;0;0;9;0;18268;0;0;0;0
14.10.19;20:50:00;1;380;7765;0;2;0;22263;0;0;0;0;3;0;14385;0;0;0;0;4;0;21173;0;0;0;0;5;0;53641;2;0;0;0;0;0;6;0;40626;2;0;0;0;0;0;7;0;34568;0;0;0;0;8;0;33820;0;0;0;0;9;0;18268;0;0;0;0
14.10.19;20:45:00;1;434;7732;0;2;0;22263;0;0;0;0;3;0;14385;0;0;0;0;4;0;21173;0;0;0;0;5;0;53641;2;0;0;0;0;0;6;0;40626;2;0;0;0;0;0;7;0;34568;0;0;0;0;8;0;33820;0;0;0;0;9;0;18268;0;0;0;0
14.10.19;20:40:00;1;435;7696;0;2;0;22263;0;0;0;0;3;0;14385;0;0;0;0;4;0;21173;0;0;0;0;5;0;53641;2;0;0;0;0;0;6;0;40626;2;0;0;0;0;0;7;0;34568;0;0;0;0;8;0;33820;0;0;0;0;9;0;18268;0;0;0;0
14.10.19;20:35:00;1;439;7660;0;2;0;22263;0;0;0;0;3;0;14385;0;0;0;0;4;0;21173;0;0;0;0;5;0;53641;2;0;0;0;0;0;6;0;40626;2;0;0;0;0;0;7;0;34568;0;0;0;0;8;0;33820;0;0;0;0;9;0;18268;0;0;0;0
14.10.19;20:30:00;1;483;7623;0;2;0;22263;0;0;0;0;3;0;14385;0;0;0;0;4;0;21173;0;0;0;0;5;0;53641;2;0;0;0;0;0;6;0;40626;2;0;0;0;0;0;7;0;34568;0;0;0;0;8;0;33820;0;0;0;0;9;0;18268;0;0;0;0
14.10.19;20:25:00;1;497;7582;0;2;0;22263;0;0;0;0;3;0;14385;0;0;0;0;4;0;21173;0;0;0;0;5;0;53641;2;0;0;0;0;0;6;0;40626;2;0;0;0;0;0;7;0;34568;0;0;0;0;8;0;33820;0;0;0;0;9;0;18268;0;0;0;0
14.10.19;20:20:00;1;575;7540;0;2;0;22263;0;0;0;0;3;0;14385;0;0;0;0;4;0;21173;0;0;0;0;5;0;53641;2;0;0;0;0;0;6;0;40626;2;0;0;0;0;0;7;0;34568;0;0;0;0;8;0;33820;0;0;0;0;9;0;18268;0;0;0;0
14.10.19;20:15:00;1;546;7491;0;2;0;22263;0;0;0;0;3;0;14385;0;0;0;0;4;0;21173;0;0;0;0;5;0;53641;2;0;0;0;0;0;6;0;40626;2;0;0;0;0;0;7;0;34568;0;0;0;0;8;0;33820;0;0;0;0;9;0;18268;0;0;0;0
14.10.19;20:10:00;1;697;7446;0;2;0;22263;0;0;0;0;3;0;14385;0;0;0;0;4;0;21173;0;0;0;0;5;0;53641;2;0;0;0;0;0;6;0;40626;2;0;0;0;0;0;7;0;34568;0;0;0;0;8;0;33820;0;0;0;0;9;0;18268;0;0;0;0
14.10.19;20:05:00;1;370;7401;0;2;0;22263;0;0;0;0;3;0;14385;0;0;0;0;4;0;21173;0;0;0;0;5;0;53641;2;0;0;0;0;0;6;0;40626;2;0;0;0;0;0;7;0;34568;0;0;0;0;8;0;33820;0;0;0;0;9;0;18268;0;0;0;0
14.10.19;20:00:00;1;254;7373;0;2;0;22263;0;0;0;0;3;0;14385;0;0;0;0;4;0;21173;0;0;0;0;5;0;53641;2;0;0;0;0;0;6;0;40626;2;0;0;0;0;0;7;0;34568;0;0;0;0;8;0;33820;0;0;0;0;9;0;18268;0;0;0;0
14.10.19;19:55:00;1;249;7352;0;2;0;22263;0;0;0;0;3;0;14385;0;0;0;0;4;0;21173;0;0;0;0;5;0;53641;2;0;0;0;0;0;6;0;40626;2;0;0;0;0;0;7;0;34568;0;0;0;0;8;0;33820;0;0;0;0;9;0;18268;0;0;0;0
14.10.19;19:50:00;1;256;7330;0;2;0;22263;0;0;0;0;3;0;14385;0;0;0;0;4;0;21173;0;0;0;0;5;0;53641;2;0;0;0;0;0;6;0;40626;2;0;0;0;0;0;7;0;34568;0;0;0;0;8;0;33820;0;0;0;0;9;0;18268;0;0;0;0
14.10.19;19:45:00;1;327;7308;0;2;0;22263;0;0;0;0;3;0;14385;0;0;0;0;4;0;21173;0;0;0;0;5;0;53641;2;0;0;0;0;0;6;0;40626;2;0;0;0;0;0;7;0;34568;0;0;0;0;8;0;33820;0;0;0;0;9;0;18268;0;0;0;0
14.10.19;19:40:00;1;256;7282;0;2;0;22263;0;0;0;0;3;0;14385;0;0;0;0;4;0;21173;0;0;0;0;5;0;53641;2;0;0;0;0;0;6;0;40626;2;0;0;0;0;0;7;0;34568;0;0;0;0;8;0;33820;0;0;0;0;9;0;18268;0;0;0;0
14.10.19;19:35:00;1;256;7261;0;2;0;22263;0;0;0;0;3;0;14385;0;0;0;0;4;0;21173;0;0;0;0;5;0;53641;2;0;0;0;0;0;6;0;40626;2;0;0;0;0;0;7;0;34568;0;0;0;0;8;0;33820;0;0;0;0;9;0;18268;0;0;0;0
14.10.19;19:30:00;1;292;7239;0;2;0;22263;0;0;0;0;3;0;14385;0;0;0;0;4;0;21173;0;0;0;0;5;0;53641;2;0;0;0;0;0;6;0;40626;2;0;0;0;0;0;7;0;34568;0;0;0;0;8;0;33820;0;0;0;0;9;0;18268;0;0;0;0
14.10.19;19:25:00;1;311;7215;0;2;0;22263;0;0;0;0;3;0;14385;0;0;0;0;4;0;21173;0;0;0;0;5;0;53641;2;0;0;0;0;0;6;0;40626;2;0;0;0;0;0;7;0;34568;0;0;0;0;8;0;33820;0;0;0;0;9;0;18268;0;0;0;0
14.10.19;19:20:00;1;316;7189;0;2;0;22263;0;0;0;0;3;0;14385;0;0;0;0;4;0;21173;0;0;0;0;5;0;53641;2;0;0;0;0;0;6;0;40626;2;0;0;0;0;0;7;0;34568;0;0;0;0;8;0;33820;0;0;0;0;9;0;18268;0;0;0;0
14.10.19;19:15:00;1;276;7162;0;2;0;22263;0;0;0;0;3;0;14385;0;0;0;0;4;0;21173;0;0;0;0;5;0;53641;2;0;0;0;0;0;6;0;40626;2;0;0;0;0;0;7;0;34568;0;0;0;0;8;0;33820;0;0;0;0;9;0;18268;0;0;0;0
14.10.19;19:10:00;1;325;7139;0;2;0;22263;0;0;0;0;3;0;14385;0;0;0;0;4;0;21173;0;0;0;0;5;0;53641;2;0;0;0;0;0;6;0;40626;2;0;0;0;0;0;7;0;34568;0;0;0;0;8;0;33820;0;0;0;0;9;0;18268;0;0;0;0
14.10.19;19:05:00;1;281;7110;0;2;0;22263;0;0;0;0;3;0;14385;0;0;0;0;4;0;21173;0;0;0;0;5;0;53641;2;0;0;0;0;0;6;0;40626;2;0;0;0;0;0;7;0;34568;0;0;0;0;8;0;33820;0;0;0;0;9;0;18268;0;0;0;0
14.10.19;19:00:00;1;399;7086;0;2;0;22263;0;0;0;0;3;0;14385;0;0;0;0;4;0;21173;0;0;0;0;5;0;53641;2;0;0;0;0;0;6;0;40626;2;0;0;0;0;0;7;0;34568;0;0;0;0;8;0;33820;0;0;0;0;9;0;18268;0;0;0;0
14.10.19;18:55:00;1;389;7054;0;2;0;22263;0;0;0;0;3;0;14385;0;0;0;0;4;0;21173;0;0;0;0;5;0;53641;2;0;0;0;0;0;6;0;40626;2;0;0;0;0;0;7;0;34568;0;0;0;0;8;0;33820;0;0;0;0;9;0;18268;0;0;0;0
14.10.19;18:50:00;1;269;7026;0;2;0;22263;0;0;0;0;3;0;14385;0;0;0;0;4;0;21173;0;0;0;0;5;0;53641;2;0;0;0;0;0;6;0;40626;2;0;0;0;0;0;7;0;34568;0;0;0;0;8;0;33820;0;0;0;0;9;0;18268;0;0;0;0
14.10.19;18:45:00;1;283;7004;0;2;0;22263;0;0;35;4;3;0;14385;0;0;113;12;4;0;21173;0;0;6;4;5;0;53641;2;0;0;0;0;0;6;0;40626;2;0;0;0;0;0;7;0;34568;0;0;0;0;8;0;33820;0;0;0;0;9;0;18268;0;0;0;0
14.10.19;18:40:00;1;336;6980;0;2;0;22263;6;0;291;28;3;0;14385;6;0;340;29;4;0;21173;2;0;77;30;5;0;53641;2;0;0;0;0;0;6;0;40626;0;0;0;0;0;1;7;0;34568;0;0;0;0;8;0;33820;0;0;0;0;9;0;18268;0;0;0;0
14.10.19;18:35:00;1;387;6951;0;2;0;22263;6;0;343;29;3;0;14385;6;3;406;30;4;0;21173;1;0;145;30;5;0;53641;1;0;0;300;302;37;6;0;40626;1;1;5;347;150;31;7;0;34568;11;0;314;30;8;0;33820;11;0;285;29;9;0;18268;2;0;293;25
14.10.19;18:30:00;1;331;6919;0;2;0;22263;6;0;369;29;3;0;14385;6;0;464;30;4;0;21173;1;0;190;31;5;0;53641;23;0;0;383;446;37;6;0;40626;23;4;6;383;315;35;7;0;34568;6;0;368;30;8;0;33820;6;0;367;30;9;0;18268;6;0;379;25
14.10.19;18:25:00;1;601;6891;0;2;0;22263;6;0;384;30;3;3;14385;4;8;446;31;4;0;21173;1;0;210;31;5;8;53641;1;0;0;393;621;38;6;0;40626;23;9;0;259;540;36;7;0;34568;6;1;406;31;8;0;33820;6;1;407;30;9;0;18268;6;1;419;26
14.10.19;18:20:00;1;384;6845;0;2;0;22263;6;0;396;31;3;0;14384;6;7;479;31;4;0;21173;3;0;204;32;5;40;53641;1;0;5;384;612;38;6;0;40626;1;6;1;383;555;37;7;1;34568;6;4;430;31;8;3;33820;3;7;414;31;9;0;18268;6;0;488;26
14.10.19;18:15:00;1;220;6819;0;2;71;22263;4;106;355;32;3;20;14384;6;38;453;32;4;9;21173;3;9;199;32;5;93;53637;4;3;17;367;587;39;6;24;40626;1;10;9;502;389;37;7;0;34567;6;7;451;32;8;1;33819;6;7;450;31;9;2;18268;4;7;471;27
14.10.19;18:10:00;1;206;6800;0;2;156;22257;4;194;354;33;3;93;14383;4;125;379;33;4;42;21173;3;44;197;33;5;125;53629;4;21;34;368;587;39;6;65;40623;4;45;28;419;214;38;7;30;34567;6;54;389;33;8;21;33819;6;39;410;32;9;3;18267;6;7;502;27
14.10.19;18:05:00;1;222;6783;0;2;251;22244;4;294;352;34;3;159;14375;4;197;390;33;4;157;21169;3;164;215;33;5;166;53618;4;42;53;368;587;39;6;86;40618;4;51;31;419;214;38;7;73;34565;4;106;375;33;8;57;33817;4;91;412;32;9;8;18267;6;15;491;28
14.10.19;18:00:00;1;261;6764;0;2;349;22223;4;394;354;35;3;220;14362;4;260;390;34;4;286;21156;5;297;223;34;5;213;53604;4;70;76;367;587;40;6;111;40610;4;71;48;419;214;38;7;114;34559;4;145;352;33;8;86;33813;4;121;383;33;9;5;18266;6;11;520;28
14.10.19;17:55:00;1;254;6742;0;2;476;22194;4;524;351;35;3;303;14343;4;345;394;34;4;330;21132;5;344;224;34;5;260;53586;4;92;100;368;587;40;6;146;40601;4;86;48;419;214;38;7;240;34549;4;270;354;34;8;161;33806;4;197;372;33;9;13;18266;6;22;410;24
14.10.19;17:50:00;1;294;6721;0;2;589;22155;4;642;353;36;3;375;14318;4;420;412;35;4;380;21105;5;396;221;35;5;300;53564;4;115;113;368;587;40;6;205;40589;4;128;98;419;286;39;7;432;34530;4;473;354;34;8;350;33792;4;387;386;34;9;0;18265;6;0;557;29
14.10.19;17:45:00;1;296;6696;0;2;724;22106;4;782;352;37;3;459;14287;4;507;401;35;4;576;21073;5;600;203;35;5;351;53538;4;146;141;363;587;40;6;347;40570;4;154;204;453;514;39;7;720;34494;4;770;377;35;8;449;33763;4;494;394;34;9;63;18265;4;91;446;30
14.10.19;17:40:00;1;284;6672;0;2;854;22046;4;916;355;38;3;539;14249;4;591;417;36;4;660;21025;5;688;205;35;5;535;53508;4;256;207;358;518;40;6;467;40541;4;208;241;555;540;39;7;976;34434;4;1040;409;35;8;585;33726;4;635;442;34;9;74;18260;4;104;461;31
14.10.19;17:35:00;1;251;6648;0;2;989;21975;4;1057;358;39;3;631;14204;4;685;415;36;4;731;20970;5;761;206;36;5;731;53462;4;366;279;401;544;41;6;586;40501;4;286;307;567;535;39;7;1276;34354;4;1345;452;35;8;747;33678;4;800;445;35;9;90;18254;4;119;474;31
14.10.19;17:30:00;1;275;6627;0;2;1171;21893;4;1245;351;39;3;716;14152;4;774;413;36;4;819;20909;5;853;217;36;5;922;53400;4;453;377;397;609;41;6;697;40451;4;315;336;560;543;39;7;1450;34247;4;1540;461;36;8;814;33615;4;869;365;35;9;83;18246;4;110;392;25
14.10.19;17:25:00;1;261;6604;0;2;1321;21795;4;1396;352;40;3;800;14092;4;857;407;37;4;936;20840;5;975;220;36;5;1129;53322;4;548;472;407;644;41;6;856;40392;4;401;421;561;542;39;7;1663;34126;4;1752;455;36;8;1232;33547;4;1295;360;36;9;98;18234;0;129;421;25
14.10.19;17:20:00;1;201;6582;0;2;1487;21685;4;1572;356;41;3;877;14026;4;938;409;37;4;1046;20764;5;1089;216;36;5;1320;53227;4;649;554;408;652;41;6;996;40320;4;512;535;564;546;39;7;1844;33990;4;1946;453;36;8;1553;33447;4;1628;394;36;9;131;18228;4;172;491;33
14.10.19;17:15:00;1;200;6565;0;2;1618;21562;4;1708;358;41;3;949;13953;4;1012;409;37;4;1129;20677;5;1176;206;37;5;1516;53116;4;770;640;402;645;41;6;1155;40236;4;615;629;571;540;39;7;2026;33835;4;2131;452;37;8;1831;33316;4;1929;422;36;9;151;18217;4;182;356;33
14.10.19;17:10:00;1;201;6549;0;2;1769;21427;4;1866;365;42;3;1018;13874;4;1085;412;38;4;1202;20583;5;1251;200;37;5;1723;52988;4;877;734;397;657;41;6;1304;40139;4;631;655;565;544;39;7;1301;33666;4;1368;274;22;8;2055;33164;4;2159;439;37;9;345;18204;4;383;352;34
14.10.19;17:05:00;1;247;6531;0;2;1837;21280;4;1939;366;42;3;1031;13789;4;1097;407;38;4;1214;20483;5;1264;230;37;5;1881;52844;4;966;807;404;650;42;6;1429;40029;4;726;736;568;548;39;7;2309;33485;4;2427;452;37;8;2233;32994;4;2347;447;37;9;745;18175;4;795;353;35
14.10.19;17:00:00;1;243;6510;0;2;2014;21126;4;2123;371;43;3;1102;13703;4;1172;409;38;4;1250;20382;5;1302;229;37;5;2097;52686;4;1087;906;404;653;42;6;1593;39909;4;797;797;570;544;40;7;2468;33294;4;2594;455;38;8;2408;32812;4;2537;454;37;9;965;18116;4;1022;375;36
14.10.19;16:55:00;1;273;6490;0;2;1508;20959;4;1600;366;42;3;805;13611;4;867;435;38;4;931;20277;5;970;218;37;5;1752;52509;4;898;753;392;640;42;6;1350;39774;4;641;658;545;540;40;7;1701;33087;4;1790;374;31;8;2139;32607;4;2253;447;37;9;776;18033;4;828;351;30
14.10.19;16:50:00;1;278;6465;0;2;772;20830;4;834;359;43;3;396;13542;4;444;412;38;4;444;20198;5;462;207;37;5;915;52369;4;440;385;383;618;42;6;636;39667;4;306;328;555;541;40;7;599;32906;4;652;431;38;8;631;32427;4;689;431;38;9;326;17952;4;367;432;37
14.10.19;16:45:00;1;224;6442;0;2;2237;20761;4;2362;380;45;3;1201;13507;4;1273;401;39;4;1250;20160;5;1302;200;38;5;2618;52273;4;1376;1130;404;658;43;6;1980;39597;4;1023;1001;563;539;40;7;2740;32857;4;2878;454;38;8;2668;32375;4;2806;444;38;9;1329;17925;4;1409;465;39
14.10.19;16:40:00;1;298;6422;0;2;2242;20574;4;2365;370;45;3;1218;13407;4;1288;404;39;4;1181;20056;5;1229;200;38;5;2751;52054;4;1466;1188;404;629;43;6;2101;39430;4;1066;1058;563;546;40;7;2841;32632;4;2981;456;39;8;2795;32157;4;2939;448;38;9;1459;17817;4;1549;485;39
14.10.19;16:35:00;1;577;6397;0;2;2427;20388;4;2560;370;46;3;1305;13306;4;1378;396;40;4;1117;19957;5;1164;201;38;5;3028;51823;4;1607;1318;405;655;43;6;2286;39255;4;1140;1133;561;543;40;7;2988;32397;4;3141;452;39;8;2930;31924;4;3075;449;39;9;1566;17695;4;1659;489;40
14.10.19;16:30:00;1;997;6341;0;2;2583;20186;4;2723;377;46;3;1398;13197;4;1477;393;40;4;1228;19864;5;1279;200;39;5;3311;51569;4;1776;1435;405;653;43;6;2523;39062;4;1300;1295;559;541;40;7;3238;32145;4;3401;453;39;8;3180;31680;4;3331;450;39;9;1722;17565;4;1827;490;40
14.10.19;16:25:00;1;897;6260;0;2;2884;19971;4;3039;372;46;3;1560;13081;4;1643;398;40;4;1426;19762;5;1485;202;39;5;3803;51292;4;2045;1669;401;646;43;6;2883;38851;4;1464;1436;563;543;40;7;3530;31876;4;3702;453;39;8;3448;31415;4;3621;446;39;9;1872;17421;4;1983;497;40
14.10.19;16:20:00;1;966;6180;0;2;3079;19732;4;3248;382;46;3;1653;12952;4;1741;402;40;4;1584;19643;5;1650;211;39;5;4159;50971;4;2242;1825;406;654;43;6;3147;38609;4;1619;1583;566;548;40;7;3779;31583;4;3960;455;39;8;3722;31129;4;3905;457;39;9;2026;17266;4;2145;501;40
14.10.19;16:15:00;1;1121;6077;0;2;3114;19475;4;3285;390;44;3;1506;12814;4;1590;444;40;4;1652;19512;5;1721;216;40;5;4295;50620;4;2316;1888;411;665;43;6;3302;38342;4;1702;1665;577;551;40;7;4025;31269;4;4229;465;39;8;3989;30817;4;4180;459;39;9;2177;17097;4;2302;503;39
14.10.19;16:10:00;1;1009;5989;0;2;1354;19214;4;1439;381;43;3;686;12687;4;750;516;40;4;918;19374;5;956;236;40;5;2134;50269;4;1095;927;408;650;43;6;1699;38072;4;883;878;567;539;40;7;1878;30934;4;1979;458;39;8;1821;30485;4;1915;443;39;9;999;16915;4;1073;506;38
14.10.19;16:05:00;1;926;5909;0;2;854;19100;4;924;378;43;3;531;12629;4;591;489;40;4;671;19297;5;698;228;40;5;1436;50110;4;716;609;396;619;44;6;1094;37949;4;549;566;557;530;41;7;1011;30771;4;1081;442;40;8;998;30328;4;1068;443;40;9;525;16829;4;582;502;39
14.10.19;16:00:00;1;847;5833;0;2;1003;19029;4;1078;385;45;3;554;12585;4;618;516;41;4;741;19241;5;772;228;41;5;1603;49988;4;802;683;397;633;44;6;1219;37857;4;619;634;551;530;41;7;1234;30687;4;1318;458;41;8;1211;30245;4;1288;457;40;9;245;16785;4;269;203;16
14.10.19;15:55:00;1;865;5762;0;2;1061;18945;4;1137;377;46;3;556;12538;4;617;502;41;4;747;19179;5;779;232;42;5;1678;49853;4;847;714;395;631;45;6;1277;37754;4;639;648;552;539;41;7;810;30585;4;862;303;28;8;1332;30144;4;1413;435;41;9;708;16735;4;771;511;41
14.10.19;15:50:00;1;783;5692;0;2;629;18856;4;688;366;48;3;350;12492;4;401;440;42;4;469;19117;5;488;218;43;5;1110;49716;4;540;469;376;611;46;6;847;37650;4;412;433;529;518;42;7;877;30485;4;942;442;42;8;692;30034;4;744;344;34;9;467;16676;4;517;472;42
14.10.19;15:45:00;1;871;5623;0;2;1750;18803;4;1859;369;51;3;956;12462;4;1023;413;43;4;1159;19077;5;1207;223;44;5;2680;49623;4;1410;1171;387;630;46;6;1997;37579;4;1005;1003;548;533;42;7;1903;30410;4;2016;441;43;8;1810;29958;4;1915;448;43;9;967;16636;4;1041;487;44
14.10.19;15:40:00;1;1576;5551;0;2;3195;18664;4;3370;366;52;3;1793;12386;4;1887;412;44;4;2209;18985;5;2301;222;45;5;5051;49389;4;2736;2244;395;633;46;6;3820;37405;4;1939;1917;550;535;42;7;3959;30257;4;4155;443;44;8;2977;29811;4;3124;349;35;9;2096;16558;4;2218;486;45
14.10.19;15:35:00;1;800;5431;0;2;3598;18400;4;3781;362;52;3;2025;12238;4;2127;414;45;4;2559;18802;5;2666;225;45;5;5731;48962;4;3121;2546;396;633;47;6;4328;37085;4;2240;2185;556;539;42;7;4652;29928;4;4882;434;44;8;3061;29424;0;3212;293;29;9;2524;16386;4;2663;482;46
14.10.19;15:30:00;1;1333;5361;0;2;3135;18100;4;3306;376;52;3;1768;12069;4;1862;418;45;4;2348;18589;5;2446;225;46;5;5063;48487;4;2743;2239;395;637;47;6;3836;36724;4;1971;1922;557;539;42;7;4150;29540;4;4365;455;44;8;4106;29114;4;4311;426;44;9;2273;16174;4;2403;495;45
14.10.19;15:25:00;1;1572;5241;0;2;3460;17841;4;3646;368;53;3;1986;11923;4;2089;428;45;4;2682;18395;5;2794;225;46;5;5699;48094;4;3103;2527;397;635;47;6;4382;36422;4;2276;2224;555;539;42;7;4313;29194;4;4539;440;45;8;4269;28769;4;4481;440;44;9;2340;15986;4;2478;498;45
14.10.19;15:20:00;1;847;5120;0;2;1875;17562;4;1987;387;51;3;1224;11764;4;1306;460;45;4;1809;18179;5;1884;226;46;5;3892;47612;4;2096;1701;395;623;47;6;2935;36064;4;1491;1486;536;539;43;7;2995;28832;4;3152;445;45;8;3036;28413;4;3192;409;45;9;1842;15788;4;1950;478;45
14.10.19;15:15:00;1;1593;5047;0;2;2408;17395;4;2548;360;54;3;1482;11655;4;1573;460;46;4;1959;18021;5;2040;219;47;5;4289;47327;4;2320;1894;388;621;48;6;3483;35842;4;1790;1746;549;522;43;7;2917;28583;4;3075;438;46;8;2593;28158;4;2733;423;45;9;1283;15635;4;1370;476;47
14.10.19;15:10:00;1;2806;4878;0;2;3792;17201;4;3994;366;55;3;2461;11535;4;2583;452;47;4;3239;17863;5;3374;222;48;5;6760;46947;4;3695;3012;391;625;48;6;5118;35560;4;2623;2548;551;536;43;7;4612;28348;4;4844;435;46;8;4465;27949;4;4694;435;46;9;2554;15531;4;2696;476;48
14.10.19;15:05:00;1;2799;4643;0;2;3364;16879;4;3549;368;54;3;2253;11327;4;2375;470;47;4;2931;17587;5;3052;222;48;5;5971;46405;4;3245;2643;393;629;48;6;4388;35149;4;2250;2188;550;524;43;7;4536;27958;4;4768;432;46;8;3690;27471;0;3872;353;38;9;2495;15314;4;2634;472;47
14.10.19;15:00:00;1;1664;4410;0;2;3695;16598;4;3898;362;54;3;2421;11137;4;2547;458;47;4;3188;17341;5;3321;220;49;5;6420;45915;4;3490;2862;387;627;48;6;4614;34778;4;2396;2335;565;548;43;7;2437;27579;4;2565;253;27;8;4245;27179;4;4462;442;46;9;2338;15102;4;2466;450;48
14.10.19;14:55:00;1;506;4257;0;2;3627;16285;4;3821;360;55;3;2350;10934;4;2476;456;47;4;3270;17072;5;3406;217;49;5;6624;45447;4;3632;2954;390;625;48;6;4945;34424;4;2537;2454;551;529;43;7;3709;27192;4;3905;419;47;8;3746;26816;4;3944;437;47;9;2230;14904;4;2360;463;48
14.10.19;14:50:00;1;345;4219;0;2;4043;15986;4;4261;361;55;3;2622;10740;4;2761;468;47;4;3563;16802;5;3711;219;49;5;7120;44924;4;3915;3175;389;627;48;6;5397;34031;4;2769;2696;547;528;43;7;5291;26891;4;5572;429;47;8;5206;26511;4;5463;433;47;9;2888;14722;4;3051;476;49